Home   Weather   Township of Fairfield   Past weeks
Flag for USA

Past Weather in Township of Fairfield, South Dakota, USA — Yesterday and Last 2 Weeks

Now
14 °F

Light snow. Overcast.


Feels Like: -4 °F
Forecast: 28 / 8 °F
Wind: 20 mph from Northeast

Location: Aberdeen Regional Airport

Current Time: Dec 8, 2019 at 5:56:32 pm

Latest Report: Dec 8, 2019 at 4:53 pm


Visibility: 7 mi

Pressure: 29.86 "Hg

Humidity: 80%

Dew Point: 9 °F

Location of Township of FairfieldLocation

Past Weather in Township of Fairfield — Graph

°F

Township of Fairfield Temperature Yesterday

Maximum temperature yesterday: 36 °F (at 1:53 pm)
Minimum temperature yesterday: 13 °F (at 2:53 am)
Average temperature yesterday: 25 °F

High & Low Weather Summary for the Past Weeks

 TemperatureHumidityPressure
High59 °F (Nov 24, 1:53 pm)96% (Dec 8, 6:53 am)30.54 "Hg (Dec 8, 6:53 am)
Low0 °F (Dec 2, 2:18 am)41% (Nov 24, 1:53 pm)29.46 "Hg (Nov 24, 9:53 pm)
Average28 °F80%29.95 "Hg
* Reported Nov 23 4:53 pm — Dec 8 4:31 pm, Township of Fairfield. Weather by CustomWeather, © 2019

Note: Actual official high and low records may vary slightly from our data, if they occured in-between our weather recording intervals... More about our weather records

Township of Fairfield Weather History for the Previous 24 Hours

Scroll right to see more
 ConditionsComfort  
Time TempWeatherWind HumidityBarometerVisibility
4:31 pm
Sun, Dec 8
14 °FOvercast.21 mph80%29.79 "Hg9 mi
3:53 pm16 °FLow clouds.18 mph80%29.84 "Hg10 mi
2:53 pm17 °FLow clouds.15 mph80%29.84 "Hg10 mi
1:53 pm19 °FLow clouds.15 mph81%29.86 "Hg10 mi
12:53 pm20 °FLow clouds.16 mph89%29.88 "Hg10 mi
11:53 am21 °FLow clouds.13 mph85%29.90 "Hg10 mi
11:13 am22 °FLow clouds.17 mph89%29.85 "Hg9 mi
10:53 am23 °FIce fog.16 mph92%29.91 "Hg5 mi
10:35 am24 °FIce fog.20 mph91%29.85 "Hg2 mi
10:07 am26 °FIce fog.16 mph92%29.85 "Hg2 mi
9:53 am27 °FIce fog.13 mph92%29.89 "Hg1 mi
9:32 am28 °FIce fog.17 mph93%29.83 "Hg2 mi
9:03 am29 °FIce fog.12 mph93%29.81 "Hg6 mi
8:34 am29 °FIce fog.14 mph93%29.81 "Hg1 mi
7:53 am29 °FIce fog.13 mph93%29.85 "Hg2 mi
7:42 am28 °FIce fog.9 mph96%29.80 "Hg2 mi
7:17 am28 °FIce fog.9 mph93%29.79 "Hg1 mi
6:53 am27 °FIce fog.9 mph96%29.82 "Hg1 mi
6:31 am27 °FIce fog.12 mph92%29.78 "Hg2 mi
6:14 am27 °FIce fog.12 mph92%29.78 "Hg3 mi
6:02 am26 °FIce fog.13 mph92%29.79 "Hg1 mi
5:36 am24 °FPassing clouds.17 mph88%29.77 "Hg9 mi
4:53 am19 °FClear.8 mph88%29.81 "Hg10 mi
3:53 am16 °FClear.No wind87%29.79 "Hg10 mi
2:53 am19 °FClear.No wind88%29.77 "Hg10 mi
1:53 am21 °FClear.No wind88%29.74 "Hg10 mi
12:53 am22 °FClear.6 mph89%29.74 "Hg10 mi
11:53 pm
Sat, Dec 7
20 °FClear.3 mph92%29.74 "Hg10 mi
10:53 pm24 °FClear.5 mph84%29.73 "Hg10 mi
9:53 pm27 °FClear.3 mph85%29.71 "Hg10 mi
8:53 pm30 °FClear.7 mph82%29.71 "Hg10 mi
7:53 pm29 °FClear.9 mph85%29.71 "Hg10 mi
6:53 pm32 °FClear.8 mph85%29.70 "Hg10 mi
5:53 pm33 °FClear.7 mph85%29.70 "Hg10 mi
Weather by CustomWeather, © 2019

See weather overview

Advertising